FW6385 Weather Reports


Display with metric or nautical units.
time (UTC)temp
F
wind
direction
speed
MPH
gust
MPH
rain 1hr
in
rain 24hr
in
rain mn
in
humidity
%
barometer
mb
20260510053455 66 180 4.0 10.0 0.00 0.01 0.01 64 1027.6
20260510043454 65 180 4.0 9.0 0.00 0.01 0.01 64 1027.6
20260510040456 64 180 3.0 6.0 0.00 0.02 0.01 65 1027.9
20260510030449 62 180 1.0 9.0 0.00 0.02 0.01 68 1028.8
20260510013448 60 180 3.0 10.0 0.00 0.02 0.01 71 1029.5
20260510003449 59 180 3.0 6.0 0.00 0.02 0.01 76 1029.6
20260509233445 58 180 3.0 9.0 0.00 0.02 0.01 77 1029.5
20260509223446 57 180 3.0 8.0 0.00 0.02 0.01 82 1029.1
20260509213446 56 180 2.0 4.0 0.00 0.02 0.01 89 1028.5
20260509203446 55 180 2.0 5.0 0.00 0.02 0.01 91 1028.1
20260509193451 54 180 1.0 3.0 0.00 0.02 0.01 93 1027.3
20260509193445 54 180 2.0 5.0 0.00 0.02 0.01 93 1027.8
20260509180444 54 180 0.0 4.0 0.01 0.02 0.01 93 1027.2
20260509163444 54 180 0.0 6.0 0.00 0.02 0.00 93 1027.5
20260509153447 55 180 3.0 4.0 0.00 0.02 0.00 91 1027.6
20260509143444 56 180 0.0 3.0 0.00 0.02 0.00 90 1027.8
20260509140445 56 180 0.0 7.0 0.00 0.02 0.02 89 1027.9
20260509130443 56 180 3.0 10.0 0.00 0.02 0.02 89 1027.9
20260509113441 56 180 4.0 9.0 0.00 0.02 0.02 89 1027.7
20260509103441 56 180 3.0 6.0 0.00 0.02 0.02 87 1027.9
20260509093441 58 180 4.0 9.0 0.00 0.02 0.02 85 1027.9
20260509083442 60 180 4.0 11.0 0.00 0.02 0.02 83 1027.8
20260509073442 61 180 5.0 11.0 0.00 0.02 0.02 82 1027.2
20260509063442 62 180 3.0 11.0 0.00 0.02 0.02 85 1027.0